VENTA 1
1 42791U 17036AC 20177.43637002 .00000778 00000-0 35361-4 0 9996
2 42791 097.3006 231.6379 0010967 007.9010 352.2398 15.23609048167005
Robusta 1B
1 42792U 17036AD 20177.41503227 .00000805 00000-0 36276-4 0 9993
2 42792 097.3011 231.8288 0010878 007.8682 352.2724 15.23815193167034
D-SAT
1 42794U 17036AF 20177.56098442 .00000205 00000-0 23268-4 0 9990
2 42794 097.4926 209.8154 0125523 338.6778 020.9236 14.91284426163906
TechnoSat
1 42829U 17042E 20177.60416156 .00000112 00000-0 16579-4 0 9991
2 42829 097.5191 059.0016 0012613 256.7356 103.2456 14.91105376160507
QIKCOM-1
1 42983U 98067NF 20177.56304792 .00002252 00000-0 31694-4 0 9997
2 42983 051.6386 264.6203 0004105 086.4424 273.7039 15.61623073151550
AO-91
1 43017U 17073E 20177.57611675 .00000523 00000-0 45817-4 0 9997
2 43017 097.7228 089.4980 0257710 024.2251 337.0828 14.78948249140369
EcAMSat
1 43019U 98067NG 20177.48323696 .00004593 00000-0 48730-4 0 9992
2 43019 051.6399 250.6693 0004022 072.7733 287.3703 15.66356180234055
PICSAT
1 43132U 18004X 20177.45389684 .00000808 00000-0 35850-4 0 9991
2 43132 097.4468 248.7457 0010353 034.6392 325.5518 15.24436072136271
AO-92
1 43137U 18004AC 20177.49381931 .00000630 00000-0 28836-4 0 9996
2 43137 097.4454 248.6003 0010040 036.7239 323.4685 15.24138042136271
TianYi 2
1 43155U 18008A 20177.55844535 .00000174 00000-0 13932-4 0 9995
2 43155 097.4464 246.4438 0019054 117.9201 358.3989 15.11642261134142
Zhou Enlai
1 43156U 18008B 20177.59483419 .00000752 00000-0 48441-4 0 9995
2 43156 097.4512 246.3272 0016212 116.3986 019.6901 15.11193070134104
TianYi 6
1 43158U 18008D 20177.45999414 .00000627 00000-0 41527-4 0 9998
2 43158 97.4439 245.2427 0014875 114.3738 257.8619 15.10724870134031
S-Net G
1 43186U 18014G 20177.53728945 -.00000062 00000-0 -40533-6 0 9997
2 43186 097.6934 085.2461 0010658 190.9584 169.1407 14.96811073130905
S-Net H
1 43187U 18014H 20177.53711357 -.00000065 00000-0 -65957-6 0 9997
2 43187 097.6932 085.2241 0010657 190.9107 169.1885 14.96810923130903
S-Net J
1 43188U 18014J 20177.53698375 -.00000072 00000-0 -12648-5 0 9998
2 43188 097.6935 085.2539 0010651 191.0161 169.0829 14.96810794130906
S-Net K
1 43189U 18014K 20177.47055870 -.00000060 00000-0 -18725-6 0 9999
2 43189 097.6932 085.1539 0010649 191.0983 169.0005 14.96810078129440
FMN 1
1 43192U 18015A 20177.59934311 .00001250 00000-0 51855-4 0 9992
2 43192 097.4453 307.0487 0017208 063.5881 057.9565 15.25645382133141
Shaonian Xing
1 43199U 18015H 20177.59330668 .00000940 00000-0 39502-4 0 9994
2 43199 097.4235 305.2937 0018406 072.4560 055.8764 15.25795523133208
UBAKUSAT
1 43467U 98067NQ 20177.46946968 .00018588 00000-0 12158-3 0 9993
2 43467 051.6343 240.4613 0001932 029.2367 330.8741 15.75872558121375
EnduroSat One
1 43551U 98067NZ 20177.45029851 .00037794 00000-0 18150-3 0 9997
2 43551 051.6319 237.2730 0002222 058.6684 301.4536 15.82296719111649
EQUISat
1 43552U 98067PA 20177.47931520 .00018760 00000-0 12877-3 0 9997
2 43552 051.6324 247.3958 0002819 106.6976 253.4333 15.74746314111474
UiTMSat 1
1 43589U 98067PD 20177.48754907 .00026723 00000-0 15908-3 0 9996
2 43589 051.6328 245.0096 0001427 115.5836 244.5312 15.77758642107242
Maya 1
1 43590U 98067PE 20177.41708247 .00026365 00000-0 15706-3 0 9995
2 43590 051.6288 245.2791 0001652 097.0205 263.0984 15.77751065107161
Bhutan 1
1 43591U 98067PF 20177.57871459 .00026720 00000-0 15785-3 0 9991
2 43591 051.6345 244.1950 0001522 116.4153 243.7004 15.77931031107199
SiriusSat 1
1 43595U 98067PG 20177.58365473 .00020597 00000-0 13830-3 0 9995
2 43595 051.6291 249.4356 0001877 044.3613 315.7536 15.75185421106308
SiriusSat 2
1 43596U 98067PH 20177.58258651 .00020592 00000-0 13895-3 0 9991
2 43596 051.6296 250.2554 0002148 048.4209 311.6974 15.75070853106293
Tanusha-3
1 43597U 98067PJ 20177.54490708 .00059897 00000-0 22480-3 0 9999
2 43597 051.6261 236.2044 0004106 010.5987 349.5103 15.87247097106476
SurfSat
1 43614U 18070B 20177.46723109 .00001679 00000-0 43296-4 0 9994
2 43614 093.0205 157.8990 0013052 314.4621 045.5565 15.39224335099713
CP-7 DAVE
1 43615U 18070C 20177.49942021 .00001634 00000-0 42360-4 0 9996
2 43615 093.0207 157.9021 0013181 313.7049 046.3112 15.39077169099719
ELFIN-B
1 43616U 18070D 20177.53279996 .00002228 00000-0 55143-4 0 9999
2 43616 093.0170 157.8611 0013487 315.3801 044.6368 15.40438663099767
ELFIN-A
1 43617U 18070E 20177.50019801 .00002610 00000-0 64194-4 0 9995
2 43617 093.0222 158.3660 0012712 312.0846 047.9327 15.40630368099766
STARS-Me Mother
1 43640U 98067PQ 20177.46663256 .00008174 00000-0 83820-4 0 9997
2 43640 051.6345 267.5771 0004138 059.2991 300.8412 15.65958504097988
CubeBel 1
1 43666U 18083E 20177.55250951 .00000716 00000-0 38241-4 0 9990
2 43666 097.4876 203.9369 0014341 338.7043 172.8366 15.18276036091845
Changshagaoxin
1 43669U 18083H 20177.59025472 .00000459 00000-0 26389-4 0 9999
2 43669 097.4761 202.1431 0009948 334.1592 025.9143 15.17305000091763
Ten-Koh
1 43677U 18084G 20177.61369407 .00000153 00000-0 21558-4 0 9995
2 43677 097.8840 294.6559 0017200 128.5832 231.6930 14.90292173090151
PO-101
1 43678U 18084H 20177.38991414 -.00000067 00000-0 -95243-6 0 9999
2 43678 097.8856 295.7929 0010661 144.7220 215.4692 14.91635305090207
IRVINE 01
1 43693U 18088D 20177.44269209 .00001469 00000-0 60773-4 0 9990
2 43693 085.0356 071.7265 0015347 261.9612 097.9889 15.22907113090065
QO-100
1 43700U 18090A 20177.39077076 .00000145 00000-0 00000-0 0 9998
2 43700 000.0159 023.8133 0001107 087.3991 329.2251 01.00271515005794
Reaktor Hello World
1 43743U 18096AA 20177.48661480 .00000805 00000-0 32617-4 0 9995
2 43743 097.4209 251.3200 0019598 099.1939 261.1519 15.27426761087628
MinXSS-2
1 43758U 18099A 20177.49360485 .00000444 00000-0 44999-4 0 9991
2 43758 097.7063 249.3033 0016265 157.0262 203.1690 14.95676271085156
AO-95
1 43770U 18099N 20177.47342618 .00000520 00000-0 52751-4 0 9991
2 43770 097.7054 248.7144 0015095 164.6599 195.5082 14.94994009085119
RANGE-B
1 43772U 18099Q 20177.35880683 .00000504 00000-0 51013-4 0 9991
2 43772 97.7124 249.1196 0015000 152.3152 207.8871 14.95186611 85099
RANGE-A
1 43773U 18099R 20177.33034307 .00000186 00000-0 22203-4 0 9999
2 43773 097.6995 248.2090 0014327 152.6891 207.5085 14.94970145085087
MOVE-II
1 43780U 18099Y 20177.48712191 .00000736 00000-0 71717-4 0 9992
2 43780 097.7060 248.9432 0014152 161.3697 198.8045 14.95410140085110
SNUSat 2
1 43782U 18099AA 20177.43324054 .00000049 00000-0 96185-5 0 9990
2 43782 097.7052 248.8895 0013490 150.9400 209.2574 14.95264346085114
SnugLite
1 43784U 18099AC 20177.46803342 .00000369 00000-0 38603-4 0 9992
2 43784 097.7014 248.7477 0015757 159.7448 200.4401 14.95358884085131
ITASat 1
1 43786U 18099AE 20177.46853303 .00000295 00000-0 31940-4 0 9991
2 43786 097.7068 249.1347 0015860 158.9620 201.2257 14.95331564085135
EAGLET 1
1 43790U 18099AJ 20177.45848400 -.00000086 00000-0 -25878-5 0 9991
2 43790 097.7057 249.3835 0013962 163.0255 197.1436 14.95711453084842
ESEO
1 43792U 18099AL 20177.46945081 .00000222 00000-0 25102-4 0 9996
2 43792 097.7030 249.2144 0013896 159.6488 200.5290 14.95600800084909
CSIM
1 43793U 18099AM 20177.44475228 -.00000125 00000-0 -60060-5 0 9993
2 43793 097.7030 249.1768 0013683 156.6298 203.5548 14.96060033084886
Astrocast 0.1
1 43798U 18099AS 20177.51404901 -.00000360 00000-0 -27015-4 0 9999
2 43798 097.7056 249.5384 0013325 142.8967 217.3178 14.95876763085157
